Date String (YYYY-MM-DD hh:mm:ss) UTC,Instrument flags,Ambient pressure (hPa),Sample flow (lpm),Bypass flow (lpm),Sample temperature (°C),Ambient temperature (°C),ASC tube jacket temperature (°C),LED temperature (°C),Box temperature (°C),Sample RH (%),Span deviation,Mass concentration (μg/m³),Mass concentration (μg/m³),Mass concentration (μg/m³)
DateTimeUTC,F1_M11,P_M11,Q1_M11,Q2_M11,T1_M11,T2_M11,T3_M11,T4_M11,T5_M11,U1_M11,ZSPAN_M11,X0_M11,X2_M11,X1_M11
2022-06-20 15:00:00,,0825.3,5.00,0.00,29.7,28.7,00.0,38.5,31.6,25.6,0000.0,0007.67,0003.79,0002.81
2022-06-20 15:01:00,,0825.3,5.01,0.00,29.7,28.8,00.0,38.5,31.7,25.5,0000.0,0007.96,0003.85,0002.80
2022-06-20 15:02:00,,0825.3,5.00,0.00,29.7,28.8,00.0,38.5,31.7,25.4,0000.0,0007.92,0003.85,0002.79
2022-06-20 15:03:00,,0825.3,5.01,0.00,29.8,28.9,00.0,38.5,31.7,25.4,0000.0,0007.95,0003.86,0002.78
2022-06-20 15:04:00,,0825.3,4.99,0.00,29.8,28.6,00.0,38.5,31.7,25.3,0000.0,0008.60,0003.86,0002.78
2022-06-20 15:05:00,,0825.3,5.00,0.00,29.7,27.8,00.0,38.4,31.5,25.4,0000.0,0008.56,0003.83,0002.77
2022-06-20 15:06:00,,0825.3,5.00,0.00,29.7,27.4,00.0,38.4,31.4,25.4,0000.0,0008.67,0003.85,0002.75
2022-06-20 15:07:00,,0825.3,5.00,0.00,29.6,27.4,00.0,38.4,31.3,25.4,0000.0,0008.73,0003.86,0002.76
2022-06-20 15:08:00,,0825.4,5.00,0.00,29.6,27.4,00.0,38.4,31.3,25.4,0000.0,0008.67,0003.85,0002.75
2022-06-20 15:09:00,,0825.3,5.00,0.00,29.5,27.6,00.0,38.4,31.3,25.4,0000.0,0008.63,0003.83,0002.75
2022-06-20 15:10:00,,0825.3,5.00,0.00,29.5,27.7,00.0,38.4,31.3,25.4,0000.0,0008.73,0003.84,0002.76
2022-06-20 15:11:00,,0825.3,4.99,0.00,29.5,27.9,00.0,38.4,31.4,25.4,0000.0,0008.68,0003.83,0002.76
2022-06-20 15:12:00,,0825.3,5.00,0.00,29.5,28.0,00.0,38.4,31.4,25.4,0000.0,0008.44,0003.82,0002.75
2022-06-20 15:13:00,,0825.3,5.00,0.00,29.5,28.2,00.0,38.4,31.4,25.3,0000.0,0008.46,0003.84,0002.77
2022-06-20 15:14:00,,0825.2,5.00,0.00,29.5,28.3,00.0,38.4,31.4,25.2,0000.0,0008.52,0003.85,0002.80
2022-06-20 15:15:00,,0825.2,5.00,0.00,29.6,28.4,00.0,38.4,31.5,25.2,0000.0,0007.88,0003.82,0002.81
2022-06-20 15:16:00,,0825.2,4.99,0.00,29.6,28.5,00.0,38.4,31.5,25.3,0000.0,0007.92,0003.84,0002.82
2022-06-20 15:17:00,,0825.2,4.99,0.00,29.6,28.6,00.0,38.4,31.6,25.3,0000.0,0007.79,0003.79,0002.83
2022-06-20 15:18:00,,0825.2,5.00,0.00,29.6,28.7,00.0,38.4,31.6,25.4,0000.0,0007.99,0003.81,0002.84
2022-06-20 15:19:00,,0825.2,5.00,0.00,29.7,28.7,00.0,38.4,31.6,25.4,0000.0,0008.39,0003.83,0002.84
2022-06-20 15:20:00,,0825.2,5.00,0.00,29.7,28.8,00.0,38.4,31.7,25.2,0000.0,0008.44,0003.85,0002.84
2022-06-20 15:21:00,,0825.2,5.00,0.00,29.7,28.8,00.0,38.5,31.7,25.0,0000.0,0008.37,0003.83,0002.85
2022-06-20 15:22:00,,0825.3,5.01,0.00,29.7,28.2,00.0,38.4,31.5,25.1,0000.0,0008.28,0003.80,0002.84
2022-06-20 15:23:00,,0825.3,5.01,0.00,29.6,27.4,00.0,38.4,31.4,25.2,0000.0,0008.28,0003.81,0002.87
2022-06-20 15:24:00,,0825.3,4.99,0.00,29.6,27.3,00.0,38.3,31.3,25.2,0000.0,0008.25,0003.78,0002.88
2022-06-20 15:25:00,,0825.3,5.00,0.00,29.5,27.3,00.0,38.3,31.2,25.2,0000.0,0008.29,0003.79,0002.86
2022-06-20 15:26:00,,0825.3,5.00,0.00,29.5,27.4,00.0,38.3,31.2,25.3,0000.0,0008.35,0003.83,0002.88
2022-06-20 15:27:00,,0825.4,5.00,0.00,29.5,27.6,00.0,38.3,31.3,25.4,0000.0,0008.33,0003.83,0002.87
2022-06-20 15:28:00,,0825.3,5.01,0.00,29.5,27.7,00.0,38.3,31.3,25.4,0000.0,0008.35,0003.86,0002.87
2022-06-20 15:29:00,,0825.3,5.01,0.00,29.5,27.9,00.0,38.3,31.3,25.4,0000.0,0008.41,0003.88,0002.88
2022-06-20 15:30:00,,0825.2,5.01,0.00,29.5,28.0,00.0,38.3,31.4,25.6,0000.0,0008.60,0003.92,0002.90
2022-06-20 15:31:00,,0825.2,5.01,0.00,29.5,28.2,00.0,38.3,31.4,25.6,0000.0,0008.52,0003.92,0002.90
2022-06-20 15:32:00,,0825.2,5.00,0.00,29.5,28.3,00.0,38.3,31.4,25.5,0000.0,0008.48,0003.91,0002.91
2022-06-20 15:33:00,,0825.3,5.00,0.00,29.5,28.4,00.0,38.3,31.5,25.5,0000.0,0008.86,0003.95,0002.93
2022-06-20 15:34:00,,0825.3,5.00,0.00,29.6,28.5,00.0,38.3,31.5,25.6,0000.0,0008.87,0003.94,0002.95
2022-06-20 15:35:00,,0825.2,5.00,0.00,29.6,28.6,00.0,38.3,31.5,25.5,0000.0,0008.85,0003.93,0002.95
2022-06-20 15:36:00,,0825.2,5.00,0.00,29.6,28.7,00.0,38.4,31.6,25.6,0000.0,0009.07,0003.92,0002.96
2022-06-20 15:37:00,,0825.2,5.01,0.00,29.6,28.7,00.0,38.4,31.6,25.5,0000.0,0009.19,0003.87,0002.95
2022-06-20 15:38:00,,0825.2,4.99,0.00,29.6,28.1,00.0,38.3,31.5,25.5,0000.0,0009.53,0003.83,0002.97
2022-06-20 15:39:00,,0825.1,5.01,0.00,29.6,27.4,00.0,38.3,31.3,25.8,0000.0,0009.44,0003.81,0002.99
2022-06-20 15:40:00,,0825.1,5.00,0.00,29.5,27.2,00.0,38.2,31.2,25.8,0000.0,0009.48,0003.83,0003.01
2022-06-20 15:41:00,,0825.1,5.00,0.00,29.4,27.3,00.0,38.2,31.2,25.9,0000.0,0008.74,0003.81,0003.02
2022-06-20 15:42:00,,0825.2,5.01,0.00,29.4,27.4,00.0,38.2,31.2,26.0,0000.0,0008.85,0003.84,0003.04
2022-06-20 15:43:00,,0825.2,5.01,0.00,29.4,27.5,00.0,38.2,31.2,26.0,0000.0,0008.94,0003.86,0003.05
2022-06-20 15:44:00,,0825.2,5.01,0.00,29.4,27.7,00.0,38.2,31.2,26.0,0000.0,0008.75,0003.88,0003.03
2022-06-20 15:45:00,,0825.2,5.01,0.00,29.4,27.9,00.0,38.2,31.3,26.0,0000.0,0008.79,0003.90,0003.02
2022-06-20 15:46:00,,0825.2,4.99,0.00,29.4,28.0,00.0,38.2,31.3,25.8,0000.0,0008.88,0003.92,0003.02
2022-06-20 15:47:00,,0825.3,5.00,0.00,29.4,28.2,00.0,38.2,31.4,25.9,0000.0,0008.63,0003.92,0003.02
2022-06-20 15:48:00,,0825.3,5.00,0.00,29.4,28.3,00.0,38.2,31.4,25.9,0000.0,0008.62,0003.97,0003.04
2022-06-20 15:49:00,,0825.4,5.01,0.00,29.5,28.4,00.0,38.3,31.4,25.8,0000.0,0008.20,0003.99,0003.05
2022-06-20 15:50:00,,0825.3,5.00,0.00,29.5,28.5,00.0,38.3,31.5,25.8,0000.0,0008.28,0004.02,0003.06
2022-06-20 15:51:00,,0825.3,5.00,0.00,29.5,28.6,00.0,38.3,31.5,25.8,0000.0,0008.39,0004.01,0003.06
2022-06-20 15:52:00,,0825.3,5.00,0.00,29.6,28.6,00.0,38.3,31.5,25.8,0000.0,0009.23,0004.00,0003.05
2022-06-20 15:53:00,,0825.2,5.00,0.00,29.6,28.4,00.0,38.3,31.5,25.8,0000.0,0009.22,0003.97,0003.04
2022-06-20 15:54:00,,0825.2,5.00,0.00,29.5,27.6,00.0,38.2,31.3,25.9,0000.0,0009.23,0003.99,0003.06
2022-06-20 15:55:00,,0825.1,5.01,0.00,29.5,27.2,00.0,38.2,31.2,26.1,0000.0,0009.10,0003.97,0003.06
2022-06-20 15:56:00,,0825.1,5.00,0.00,29.4,27.2,00.0,38.2,31.1,26.2,0000.0,0009.50,0003.95,0003.04
2022-06-20 15:57:00,,0825.1,5.00,0.00,29.4,27.3,00.0,38.2,31.1,26.3,0000.0,0009.63,0003.94,0003.03
2022-06-20 15:58:00,,0825.2,5.00,0.00,29.3,27.4,00.0,38.2,31.1,26.3,0000.0,0009.63,0003.95,0003.02
2022-06-20 15:59:00,,0825.2,5.01,0.00,29.3,27.6,00.0,38.2,31.2,26.4,0000.0,0009.55,0003.92,0003.02
